EHI
52 52 55 53 40 29 25 20 15 13 11 6 2 1 1 3 4 6 11 16 16 13 10 8 7 5 3 2 1 1 1 1 0 0 0 0 0 0 0 0 0 0 0
58 57 57 55 47 36 31 25 19 16 15 11 7 5 5 6 6 7 10 15 17 15 13 12 11 10 6 3 1 0 1 1 1 0 0 0 0 0 0 0 0 0 0
63 61 59 57 52 47 45 40 32 27 24 19 14 10 9 9 8 8 10 14 15 14 13 14 13 12 8 4 2 1 1 1 1 0 0 0 0 0 0 0 0 0 0
60 59 59 58 57 55 55 53 49 44 36 28 21 15 11 10 8 7 8 10 12 11 10 10 11 9 6 3 2 2 2 1 0 0 0 0 0 0 0 0 0 0 0
50 52 56 57 55 56 58 57 58 56 47 34 25 18 13 12 10 8 6 7 9 10 8 8 9 7 4 2 2 3 2 2 2 2 1 0 0 0 0 0 0 0 0
39 42 47 49 48 50 56 57 57 57 50 37 23 15 13 12 11 9 6 5 6 6 6 6 8 6 3 2 1 2 3 3 3 2 1 1 0 0 0 0 0 0 0
29 31 37 41 42 45 49 51 52 50 42 32 20 12 8 8 8 8 6 4 3 3 3 5 5 4 2 1 0 1 2 2 2 2 2 2 1 0 0 0 0 0 0
20 23 30 33 36 40 41 42 40 37 30 22 18 12 6 4 4 5 4 3 2 2 1 2 2 2 1 0 0 0 1 1 1 2 3 2 1 0 0 0 0 0 0
16 19 24 27 30 33 36 34 28 24 19 15 15 14 11 6 4 4 3 1 0 0 0 0 1 1 0 0 0 0 0 1 1 2 2 1 0 0 0 0 0 0 0
14 15 20 24 26 27 28 25 20 17 14 12 14 16 15 11 5 2 1 0 0 0 0 0 0 0 0 0 0 0 0 0 1 1 1 0 0 0 0 0 0 0 0
13 14 17 20 22 23 22 19 17 16 14 13 13 14 13 10 5 1 0 0 0 0 0 0 0 0 0 0 0 0 0 0 0 0 0 0 0 0 0 0 0 0 0
12 13 13 14 15 17 18 17 16 15 12 11 11 10 8 6 3 1 0 0 0 0 0 0 0 0 0 0 0 0 0 0 0 0 0 0 0 0 0 0 0 0 0
9 9 8 8 8 10 12 13 12 9 7 7 7 6 6 5 2 1 0 0 0 0 0 0 0 0 0 0 0 0 0 0 0 0 0 0 0 0 0 0 0 0 0
6 6 5 3 3 4 6 7 8 6 4 4 3 3 4 4 2 0 0 0 0 0 0 0 0 0 0 0 0 0 0 0 0 0 0 0 0 0 0 0 0 0 0
3 3 2 1 1 2 4 5 5 4 3 1 0 0 1 1 0 0 0 0 0 0 0 0 0 0 0 0 0 0 0 0 0 0 0 0 0 0 0 0 0 0 0
1 1 0 0 0 1 2 3 4 3 1 0 0 0 0 0 0 0 0 0 0 0 0 0 0 0 0 0 0 0 0 0 0 0 0 0 0 0 0 0 0 0 0
0 0 0 0 0 0 1 2 2 2 1 0 0 0 0 0 0 0 0 0 0 0 0 0 0 0 0 0 0 0 0 0 0 0 0 0 0 0 0 0 0 0 0
0 0 0 0 0 0 0 1 1 1 0 0 0 0 0 0 0 0 0 0 0 0 0 0 0 0 0 0 0 0 0 0 0 0 0 0 0 0 0 0 0 0 0
0 0 0 0 0 0 0 0 0 0 0 0 0 0 0 0 0 0 0 0 0 0 0 0 0 0 0 0 0 0 0 0 0 0 0 0 0 0 0 0 0 0 0
0 0 0 0 0 0 0 0 0 0 0 0 0 0 0 0 0 0 0 0 0 0 0 0 0 0 0 0 0 0 0 0 0 0 0 0 0 0 0 0 0 0 0
0 0 0 0 0 0 0 0 0 0 0 0 0 0 0 0 0 0 0 0 0 0 0 0 0 0 0 0 0 0 0 0 0 0 0 0 0 0 0 0 0 0 0
0 0 0 0 0 0 0 0 0 0 0 0 0 0 0 0 0 0 0 0 0 0 0 0 0 0 0 0 0 0 0 0 0 0 0 0 0 0 0 0 0 0 0
0 0 0 0 0 0 0 0 0 0 0 0 0 0 0 0 0 0 0 0 0 0 0 0 0 0 0 0 0 0 0 0 0 0 0 0 0 0 0 0 0 0 0
0 0 0 0 0 0 0 0 0 0 0 0 0 0 0 0 0 0 0 0 0 0 0 0 0 0 0 0 0 0 0 0 0 0 0 0 0 0 0 0 0 0 0
0 0 0 0 0 0 0 0 0 0 0 0 0 0 0 0 0 0 0 0 0 0 0 0 0 0 0 0 0 0 0 0 0 0 0 0 0 0 0 0 0 0 0
0 0 0 0 0 0 0 0 0 0 0 0 0 0 0 0 0 0 0 0 0 0 0 0 0 0 0 0 0 0 0 0 0 0 0 0 0 0 0 0 0 0 0
Wind_Speed
7 7 5 5 7 6 7 7 7 7 7 8 7 7 6 6 4 3 4 8 5 4 5 5 6 6 6 6 6 5 4 4 4 4 4 4 4 4 3 3 3 2 2
7 6 6 6 7 6 7 7 7 6 6 5 6 5 5 5 4 4 3 7 7 6 4 4 4 4 5 4 4 3 3 3 2 2 3 3 2 3 3 3 3 2 1
8 7 7 7 7 7 7 6 7 6 6 5 5 4 3 3 2 2 2 3 5 8 7 7 6 6 6 5 5 5 5 6 6 7 7 6 5 5 5 5 5 5 4
8 7 7 7 7 7 7 7 6 6 5 5 4 3 2 2 2 2 2 2 2 4 8 9 8 8 7 8 8 8 8 8 8 8 9 9 9 9 9 8 7 7 7
8 7 6 6 7 7 7 7 7 6 6 5 4 3 2 1 2 2 2 2 3 4 5 10 11 10 10 10 9 9 9 9 9 9 10 10 10 11 11 11 10 10 9
7 7 6 7 7 7 7 7 7 7 6 6 5 3 2 2 2 2 3 3 3 4 4 6 7 10 12 11 11 12 12 12 11 11 11 11 11 12 11 11 11 10 10
5 6 6 6 7 7 8 8 6 8 6 6 5 4 2 3 3 2 2 3 4 4 5 5 5 5 7 12 12 12 12 12 12 12 12 11 12 12 12 12 12 11 11
4 5 6 5 6 6 7 8 7 6 6 7 5 5 4 3 2 2 3 4 4 4 5 6 6 5 5 6 10 12 12 12 12 12 12 13 12 12 12 11 11 11 10
3 4 5 4 5 5 5 7 8 9 7 7 7 5 6 6 4 3 3 4 5 5 5 6 7 7 7 6 7 11 13 13 13 13 13 13 12 12 11 11 10 10 10
2 2 3 4 4 4 4 6 7 6 8 8 6 6 3 4 6 5 4 4 5 5 6 5 6 6 7 7 9 12 13 12 13 13 12 12 12 11 11 11 10 10 10
1 1 1 2 2 3 4 5 5 6 6 8 6 5 4 3 4 5 6 6 5 4 5 5 5 5 6 6 7 11 12 11 11 11 11 11 10 10 10 10 10 10 10
2 2 1 1 1 1 2 4 4 5 4 6 5 5 5 5 5 4 6 7 6 5 5 4 4 3 4 5 9 12 11 11 10 10 10 10 11 11 11 11 11 11 11
2 4 3 3 2 2 1 1 1 2 3 4 4 4 4 3 4 4 7 7 6 5 4 3 2 2 3 5 7 10 11 10 9 9 9 9 10 10 10 10 10 10 10
3 3 4 3 3 2 1 1 1 1 1 1 1 2 3 3 4 6 7 8 8 4 4 4 2 2 3 4 6 5 8 9 8 8 7 8 8 8 8 8 8 8 7
4 5 5 5 4 4 3 3 3 2 2 2 2 2 2 3 4 5 6 7 8 7 5 5 4 3 3 4 5 5 7 9 7 6 6 6 6 6 6 5 5 5 5
5 5 6 5 5 5 5 4 4 4 4 4 3 4 4 4 5 5 5 4 5 7 6 6 5 6 5 6 5 4 6 9 6 5 5 4 4 4 3 3 3 3 3
6 6 6 6 6 6 5 6 6 5 6 6 5 6 6 7 6 5 5 5 6 7 10 8 7 7 6 5 5 4 5 5 7 6 5 4 3 3 2 2 2 1 2
7 7 7 7 7 7 7 7 7 7 7 8 8 8 9 7 8 7 6 7 7 7 10 12 9 8 7 6 5 4 4 3 5 9 5 4 3 3 2 2 2 1 0
8 8 8 8 8 8 8 8 9 9 9 9 9 10 10 10 9 8 8 8 8 8 9 10 9 7 6 5 6 5 4 2 4 8 8 7 6 4 3 3 3 2 2
9 9 9 9 9 9 9 9 10 10 11 11 11 11 10 10 10 9 8 9 9 10 9 9 8 7 6 6 4 5 5 4 2 4 4 4 7 7 6 5 4 3 3
10 10 10 10 10 9 9 9 10 11 12 12 13 13 13 13 12 9 8 9 9 8 8 8 8 7 6 5 4 3 3 4 3 1 2 4 5 5 7 8 7 4 3
10 10 11 11 11 10 12 13 9 11 11 12 13 12 12 13 15 15 14 12 9 7 7 6 6 7 6 4 3 2 2 3 3 2 2 2 1 1 2 2 5 3 3
10 10 11 11 11 11 12 12 11 10 11 11 11 10 10 10 11 13 13 12 12 11 6 4 7 6 6 4 2 3 2 1 2 2 2 1 1 1 1 4 6 3 4
8 9 10 10 10 10 11 10 8 11 11 11 11 11 10 10 9 8 10 11 10 9 6 6 7 5 5 4 1 1 2 2 3 2 2 1 0 0 0 3 8 6 5
8 8 9 9 10 9 10 9 6 9 10 11 11 11 10 11 8 5 8 9 9 8 8 8 7 6 5 3 3 2 2 2 2 3 1 2 1 1 1 1 6 10 9
8 8 9 9 9 9 10 10 7 7 9 9 10 10 13 10 8 7 7 8 8 7 6 7 5 5 5 4 2 3 3 2 1 2 2 2 2 2 1 0 1 3 5
Wind_Direction
206 203 207 208 208 203 196 206 208 193 203 206 216 215 221 223 229 223 139 130 149 166 183 194 196 199 200 203 209 209 207 206 212 214 213 214 217 217 212 218 225 235 246
209 206 211 212 218 213 212 206 205 196 207 208 211 209 222 217 217 219 193 128 123 125 131 146 152 157 165 167 163 162 155 154 140 130 124 129 130 129 119 112 108 105 99
212 213 216 216 219 214 210 214 207 203 201 196 195 195 206 219 199 192 199 165 136 121 116 114 115 118 123 125 123 120 118 110 103 97 95 95 98 102 100 98 96 96 87
218 216 219 220 217 214 208 208 206 202 195 189 179 178 168 163 161 164 171 150 126 116 110 104 104 107 110 110 109 107 107 104 101 99 97 93 90 87 85 85 84 82 77
227 225 225 221 218 217 214 214 201 199 188 180 162 144 136 140 144 130 116 112 110 116 114 103 96 93 99 100 101 101 103 104 103 100 96 93 89 86 83 80 78 76 74
231 230 230 224 225 222 215 215 206 198 186 170 155 125 106 110 100 105 117 105 102 113 113 113 107 91 87 91 94 95 95 94 94 93 92 91 89 87 85 84 81 77 73
240 236 239 231 229 227 218 208 201 195 186 163 150 139 114 89 89 95 107 111 102 98 97 96 99 102 97 88 87 93 94 95 94 92 92 93 92 89 86 83 79 74 69
250 243 236 231 225 227 220 209 194 198 192 186 179 164 166 155 119 99 112 111 101 98 96 92 92 94 95 91 84 87 90 93 93 92 92 91 89 88 85 81 78 75 71
252 243 242 237 234 231 227 214 206 206 199 199 198 185 181 182 142 126 103 104 109 102 99 96 94 93 94 94 96 86 84 86 90 92 91 90 86 85 83 80 77 72 68
278 247 246 236 236 234 232 224 215 214 204 199 203 214 211 151 158 147 130 108 102 101 98 97 96 93 94 89 87 86 81 81 86 88 89 88 87 84 81 78 74 69 64
328 328 299 261 247 242 236 230 222 216 211 206 196 188 182 164 167 153 150 143 115 94 93 93 95 95 94 99 101 93 88 85 86 88 88 87 87 85 83 79 74 68 62
36 24 360 339 307 275 245 231 223 215 214 213 203 191 174 171 179 154 144 148 133 108 92 83 93 102 105 104 97 97 94 90 87 88 89 89 87 85 81 77 72 66 60
33 24 21 21 5 332 293 243 203 215 208 206 204 192 182 173 161 141 136 138 127 117 106 95 88 108 116 110 109 110 102 94 91 90 90 90 89 87 82 76 70 63 59
34 33 36 35 29 17 15 77 106 116 145 164 169 176 165 160 148 143 143 142 133 125 131 133 132 141 122 118 111 135 113 104 101 98 97 97 94 90 87 81 74 67 61
43 43 46 45 41 38 41 59 73 77 80 86 100 126 136 130 135 134 139 149 144 145 141 150 152 154 149 125 138 139 122 115 114 112 109 106 103 98 92 86 81 74 67
47 49 50 47 47 47 52 59 67 71 85 82 82 92 102 104 108 116 132 135 136 137 131 145 150 153 151 139 145 139 123 135 132 128 125 121 121 113 108 100 95 88 75
52 53 52 51 49 49 56 65 70 74 83 84 86 91 99 106 114 121 124 124 122 121 123 128 131 135 143 143 144 151 150 167 139 135 132 134 138 139 138 135 123 108 79
57 58 60 59 56 56 60 70 75 78 81 84 85 88 94 101 102 105 109 111 112 121 129 132 137 142 144 144 143 164 154 167 140 135 149 152 157 160 167 174 170 174 181
63 61 62 63 61 61 66 71 76 78 79 81 84 89 93 97 99 103 109 111 116 119 125 132 133 135 143 144 155 160 147 159 154 149 169 173 171 176 183 190 199 213 233
68 66 63 64 65 65 67 72 77 79 80 79 79 79 82 89 96 104 105 111 114 119 125 129 133 141 142 151 169 159 153 160 165 160 157 167 171 190 196 199 206 221 236
69 68 67 65 65 64 56 63 77 81 82 83 81 78 76 76 69 75 96 107 116 123 128 131 136 140 137 156 157 156 147 156 150 161 191 179 180 195 183 193 195 201 234
69 67 66 65 62 60 45 45 59 80 82 84 87 89 93 89 83 75 72 72 78 104 115 127 126 122 127 130 115 149 153 170 149 128 261 177 199 203 186 129 125 169 237
75 73 71 71 71 59 47 50 50 75 79 80 82 85 88 93 98 99 95 92 76 63 64 78 102 104 114 104 119 135 96 41 55 72 284 194 177 200 174 114 143 197 247
77 77 77 78 78 62 46 49 54 81 81 81 82 84 87 87 80 90 101 96 93 81 69 80 87 87 90 92 99 97 135 175 179 154 279 282 72 346 32 136 162 200 230
84 83 80 80 79 68 41 32 40 91 86 81 78 75 82 87 59 51 99 101 99 101 88 72 65 69 61 35 334 254 199 214 149 130 132 312 359 323 280 202 168 193 212
89 86 79 77 77 70 42 26 17 91 93 94 91 85 68 64 46 30 90 100 101 101 109 123 126 151 152 151 238 297 332 348 29 93 92 313 339 328 312 333 337 188 208